This is the latest recevied weather packets stored in our database for station/object IZ5MMH-4. If no packets are shown the sender has not sent any weather packets the latest 10 day(s).
| Time | Temp. | Humidity | Pressure | Rain* | Wind** | Luminosity | Snow |
|---|---|---|---|---|---|---|---|
| 1787483663 | 29.44° C | 48% | 1018.3 hPa | - | - | - | - |
| 1787483063 | 29.44° C | 46% | 1018.5 hPa | - | - | - | - |
| 1787482464 | 29.44° C | 44% | 1018.6 hPa | - | - | - | - |
| 1787481864 | 29.44° C | 47% | 1018.5 hPa | - | - | - | - |
| 1787481264 | 28.89° C | 41% | 1018.5 hPa | - | - | - | - |
| 1787480663 | 28.89° C | 39% | 1018.5 hPa | - | - | - | - |
| 1787480063 | 28.89° C | 43% | 1018.5 hPa | - | - | - | - |
| 1787479464 | 28.89° C | 46% | 1018.6 hPa | - | - | - | - |
| 1787478863 | 28.33° C | 47% | 1018.5 hPa | - | - | - | - |
| 1787478264 | 28.33° C | 48% | 1018.6 hPa | - | - | - | - |
| 1787477664 | 28.33° C | 51% | 1018.6 hPa | - | - | - | - |
| 1787477063 | 27.78° C | 49% | 1018.7 hPa | - | - | - | - |
| 1787476463 | 27.78° C | 51% | 1018.6 hPa | - | - | - | - |
| 1787475864 | 27.78° C | 50% | 1018.5 hPa | - | - | - | - |
| 1787475264 | 27.78° C | 53% | 1018.5 hPa | - | - | - | - |
| 1787474664 | 27.22° C | 56% | 1018.5 hPa | - | - | - | - |
| 1787474064 | 27.22° C | 58% | 1018.4 hPa | - | - | - | - |
| 1787473464 | 27.22° C | 55% | 1018.4 hPa | - | - | - | - |
| 1787472864 | 26.67° C | 53% | 1018.3 hPa | - | - | - | - |
| 1787472264 | 26.67° C | 51% | 1018.3 hPa | - | - | - | - |
| 1787471664 | 26.67° C | 51% | 1018.3 hPa | - | - | - | - |
| 1787471064 | 26.11° C | 50% | 1018.3 hPa | - | - | - | - |
| 1787470464 | 26.11° C | 47% | 1018.3 hPa | - | - | - | - |
| 1787469864 | 26.11° C | 47% | 1018.2 hPa | - | - | - | - |
| 1787469264 | 25.56° C | 47% | 1018.3 hPa | - | - | - | - |
* Rain since midnight (hover to see other rain measurements)
** Current wind speed in m/s (hover to see current wind gust speed)